Theta_e
317 320 321 323 322 323 322 320 323 314 313 316 313 315 313 312 313 312 310 312 319 314 307 309 308 308 309 310 309 307 306 307 306 306 308 304 302 301 299 299 300 300 300 300 300 300 300 300 300 301 303 304 304 304 304 305 306 306 307 308 310 311 310 308 306 306 307 307 307 312 322 329 331 330 330 330 330 331 331 332 332 332 332 332 332 332 332 332 333 331 330 325 321 323 326 331 327
319 320 322 323 323 323 320 316 325 321 318 317 312 311 310 312 311 309 308 308 314 312 308 309 308 307 306 306 305 305 304 303 303 304 302 300 300 300 300 300 300 300 300 299 299 299 299 300 300 301 302 303 303 303 303 304 304 305 307 307 308 309 310 309 307 306 306 306 306 307 311 320 328 330 329 330 330 330 331 332 332 332 332 332 332 332 332 331 332 333 333 327 322 322 323 328 326
320 322 323 323 323 320 317 318 326 325 325 321 314 311 308 311 310 307 305 305 310 310 310 311 309 308 306 306 305 305 304 303 303 302 300 299 300 300 300 300 299 299 299 299 299 299 299 299 299 300 301 301 302 303 303 303 304 305 306 307 307 307 309 309 308 308 307 307 306 307 307 309 318 327 331 330 330 331 330 331 332 332 332 332 332 332 332 332 332 334 333 327 322 323 324 326 324
322 323 322 322 321 317 319 321 323 323 322 319 315 312 309 311 311 306 303 306 310 310 311 311 308 306 306 306 305 304 304 303 303 300 299 299 299 299 299 300 299 299 298 298 298 298 299 299 299 299 300 300 301 302 303 302 303 304 304 305 306 306 307 308 308 309 309 308 307 306 307 307 309 316 326 331 331 330 331 331 332 333 332 332 332 331 332 332 332 333 333 328 321 324 328 328 326
322 322 321 321 320 314 316 316 316 321 318 318 315 310 310 310 310 306 303 305 307 308 310 310 309 306 305 305 304 304 303 302 301 300 299 300 299 299 300 300 300 299 299 298 298 298 298 298 299 299 299 299 300 301 302 302 302 302 303 304 305 306 307 307 308 308 308 308 309 307 306 307 307 308 316 326 331 331 331 332 331 332 332 332 332 332 331 332 332 332 333 331 325 326 330 330 327
321 322 320 319 315 309 315 314 311 314 311 313 312 307 308 306 305 305 303 304 305 307 309 309 309 307 305 304 304 303 302 301 301 300 300 300 300 299 299 300 300 300 298 297 298 298 298 298 298 298 299 299 299 300 300 300 301 301 302 303 304 306 308 309 309 309 308 308 310 309 307 307 306 306 308 315 326 331 331 331 331 332 332 332 333 332 332 332 332 332 332 333 331 329 330 330 328
320 320 318 317 312 307 313 312 309 310 306 306 307 306 306 303 303 303 303 304 304 306 308 308 307 307 306 305 304 303 302 302 301 301 300 300 300 299 299 300 300 299 297 297 297 297 298 298 298 298 298 298 298 299 299 299 299 299 300 302 303 306 308 310 310 310 309 310 310 310 309 308 307 306 305 307 315 324 330 331 330 331 332 332 332 333 334 332 332 332 332 333 333 330 330 331 328
320 318 313 315 313 309 312 309 308 310 306 302 303 305 304 303 303 303 302 303 304 304 305 306 306 307 307 305 305 304 303 302 301 301 301 300 300 300 300 300 299 298 297 297 297 297 297 297 298 298 298 298 298 298 298 298 298 298 299 300 302 305 307 309 310 311 311 310 311 310 309 309 309 307 306 305 307 313 322 329 330 330 331 331 332 333 333 333 332 332 332 332 332 331 331 331 330
317 317 312 314 313 311 311 309 307 306 305 303 303 304 303 303 303 303 302 302 303 303 304 305 306 306 305 305 305 304 303 302 301 301 301 301 300 300 300 300 299 297 296 297 297 297 297 297 297 297 297 297 298 298 298 297 297 297 298 299 301 304 307 308 309 310 311 311 311 311 310 309 310 309 307 306 305 306 310 318 326 330 331 331 331 332 332 333 333 332 332 332 332 332 331 331 331
313 314 312 313 313 310 310 310 308 305 304 303 302 303 303 303 303 303 303 303 303 303 304 304 305 305 305 305 304 304 303 302 301 301 301 301 300 300 300 300 298 297 297 297 297 297 297 297 297 297 297 297 297 297 297 297 297 297 298 298 302 306 309 310 310 310 311 311 312 311 311 311 310 310 309 308 306 306 305 307 315 322 328 330 331 332 332 333 333 333 332 332 332 332 332 331 332
312 310 310 316 318 315 313 311 307 305 304 302 302 304 303 303 303 303 303 303 303 303 304 304 305 305 304 304 304 304 303 302 302 301 301 301 301 300 300 300 298 297 297 297 297 298 298 298 298 298 297 297 297 297 297 297 297 297 297 300 306 310 310 310 310 311 311 311 311 312 311 311 311 310 310 310 308 307 305 305 307 310 318 325 329 331 331 332 332 333 333 333 333 332 333 332 331
313 309 312 320 318 314 312 309 307 306 308 305 302 304 304 304 304 304 304 304 304 304 304 304 304 305 304 303 303 303 302 302 302 301 301 301 301 300 300 300 298 297 297 297 298 298 299 299 299 299 298 297 297 297 297 297 297 297 298 304 309 310 310 310 311 311 311 311 311 311 311 311 311 311 311 310 310 309 307 305 305 306 310 314 322 330 331 331 332 332 333 333 333 332 332 332 332
312 309 316 315 308 309 309 308 307 307 309 305 303 303 304 304 304 305 304 304 304 304 304 304 304 304 304 303 303 303 302 302 302 302 302 301 301 301 300 300 299 298 298 298 299 299 299 299 299 299 298 297 297 297 297 297 297 297 301 307 309 310 311 311 311 312 312 312 312 311 311 311 311 311 311 311 311 310 310 307 305 304 307 308 314 327 330 330 331 331 333 333 333 333 333 332 331
309 307 314 311 306 309 308 307 307 307 305 303 303 303 304 304 304 304 304 305 304 304 304 304 304 304 304 303 303 303 302 302 302 302 302 302 301 301 300 300 300 299 299 299 299 300 300 300 299 299 299 298 297 297 297 297 297 298 304 307 308 311 312 312 312 312 312 312 312 312 312 311 311 312 312 311 311 311 310 310 308 304 304 306 307 320 329 330 331 332 333 332 333 333 333 333 332
309 305 311 312 309 311 308 307 309 308 304 302 304 303 304 304 304 305 304 305 305 304 304 304 304 304 303 303 303 303 303 303 302 302 302 302 301 301 301 300 300 299 300 300 300 301 300 300 300 299 299 298 298 297 297 297 296 300 305 305 308 312 312 312 312 312 313 313 312 313 312 312 311 311 312 312 311 311 311 310 310 306 303 304 304 310 324 330 330 331 333 332 332 333 333 332 332
308 307 313 314 310 309 307 306 307 308 304 301 304 304 304 305 304 305 305 305 305 305 304 304 304 304 303 303 303 303 303 303 302 302 302 302 302 302 301 300 300 300 300 301 301 302 301 301 301 300 300 299 298 297 297 297 296 301 302 302 309 313 312 312 312 313 313 313 312 312 312 311 311 311 311 312 311 311 311 311 310 309 305 303 303 304 314 326 330 331 332 332 332 333 333 333 333
306 309 315 313 310 309 308 307 305 305 305 302 303 304 305 305 304 305 305 305 305 305 305 304 304 304 303 303 303 303 303 303 302 302 302 302 302 302 301 301 301 301 301 301 302 302 302 302 302 301 301 300 299 297 297 297 297 299 299 302 310 313 312 312 312 313 313 312 312 312 312 311 310 310 310 311 311 311 311 311 311 310 307 304 303 303 305 316 327 330 330 332 332 332 332 332 333
309 314 313 309 310 307 307 308 303 303 306 303 303 304 304 305 305 305 305 305 305 305 305 304 304 303 303 303 303 303 303 303 302 302 302 302 302 302 302 301 301 301 301 302 302 302 302 302 302 302 301 301 300 298 297 297 297 297 298 303 310 313 313 312 312 312 312 312 312 311 311 310 308 308 308 309 310 311 311 311 311 311 309 305 303 303 302 307 320 327 329 330 331 333 332 332 332
308 314 313 308 309 305 302 304 301 302 305 303 303 304 304 305 304 304 305 305 304 305 305 304 304 304 303 303 303 303 303 302 303 302 302 302 302 302 302 302 301 301 301 302 302 302 302 302 302 301 301 301 301 299 297 297 297 296 298 302 308 313 313 312 312 311 311 312 312 311 309 307 307 308 307 307 307 309 310 311 311 310 309 306 303 303 303 303 312 324 328 329 330 332 333 333 332
303 311 316 307 304 303 301 302 301 303 304 303 304 303 304 304 304 304 305 304 304 305 306 304 303 304 304 304 303 303 303 303 303 303 302 303 302 302 302 302 302 301 301 301 302 302 301 301 301 301 301 301 301 300 297 296 297 296 298 300 306 313 313 313 312 310 310 311 310 309 308 308 309 309 307 306 306 307 310 311 311 310 308 305 303 303 303 302 307 319 327 329 329 331 333 333 332
303 307 313 304 301 304 303 302 303 303 303 304 304 303 304 304 304 304 304 305 306 305 304 304 304 304 304 304 304 303 303 303 303 303 303 302 302 302 302 302 302 301 300 301 302 301 301 302 301 301 301 301 301 301 298 296 297 296 297 299 304 312 314 313 313 311 311 311 310 310 309 310 311 309 308 307 306 307 309 310 310 309 306 304 303 302 303 302 305 316 326 329 329 330 333 334 333
304 302 303 301 301 304 303 302 303 303 303 304 303 304 304 304 304 304 303 305 308 305 303 304 304 304 304 304 304 304 303 303 303 303 302 302 302 302 302 302 302 302 301 300 302 301 301 301 301 301 301 301 301 301 299 297 296 296 297 297 301 309 314 314 314 313 311 311 311 312 313 313 313 311 310 309 307 307 309 310 309 308 306 304 303 303 303 302 304 314 324 329 329 330 332 333 332
306 303 301 302 302 303 303 303 303 303 304 304 304 304 304 304 304 304 303 304 305 303 303 304 304 305 304 305 304 304 303 303 303 303 302 302 302 302 302 302 302 302 301 300 301 302 301 301 301 301 301 301 301 301 299 297 296 296 296 296 297 305 313 314 314 314 312 311 311 312 314 314 313 313 312 311 308 307 308 309 310 308 306 304 303 303 303 301 304 313 322 328 329 329 331 332 332
306 305 301 302 303 303 304 303 304 304 304 304 304 304 303 304 304 303 304 305 304 303 304 304 304 305 305 305 305 304 303 303 303 303 302 302 302 302 302 302 301 302 301 300 301 301 301 301 301 301 301 301 300 300 300 298 296 296 296 296 295 299 309 315 314 314 313 312 312 313 314 315 314 314 313 311 310 308 307 307 309 309 307 305 303 302 301 303 307 312 320 326 328 328 329 331 330
304 305 302 302 303 303 304 304 304 304 304 305 304 304 303 303 303 303 304 305 304 303 304 304 304 305 305 305 305 304 303 303 303 303 303 302 302 302 302 302 301 302 301 300 301 301 301 301 301 301 301 301 301 300 300 299 297 296 296 296 295 295 303 313 315 314 314 313 312 313 315 315 315 316 314 314 314 311 309 306 306 307 306 304 302 302 303 307 311 314 320 325 327 327 327 329 328
303 303 302 303 303 303 304 304 305 304 305 305 304 303 303 303 303 305 306 305 304 303 303 304 305 305 305 305 305 304 303 303 303 303 303 302 302 302 302 302 301 302 301 300 301 301 301 301 301 301 301 301 301 300 300 299 297 296 296 295 295 294 297 308 315 314 314 314 313 313 315 315 315 317 316 315 315 313 311 309 306 305 305 304 305 308 309 311 315 319 323 326 326 325 325 327 327
303 302 302 302 303 303 304 304 305 305 304 304 304 304 303 303 304 307 307 304 304 303 303 304 305 305 305 305 305 304 303 303 303 303 303 302 302 303 302 302 301 301 301 300 301 301 301 301 301 301 301 301 301 300 300 300 298 296 296 295 295 294 294 301 311 315 314 314 314 313 314 315 315 317 317 315 315 315 315 313 311 309 310 312 314 317 318 318 320 323 324 325 326 325 325 326 327
302 303 304 302 302 303 304 304 304 304 304 303 303 303 302 302 305 308 306 305 304 303 303 304 305 305 305 305 305 304 304 303 303 303 303 302 302 302 302 302 302 302 301 301 301 301 301 301 301 301 301 301 301 300 300 299 299 297 296 296 295 295 294 295 303 311 315 314 314 314 314 315 315 317 318 317 318 319 319 319 318 316 316 318 320 322 322 322 323 324 325 325 325 325 325 326 327
303 303 305 305 306 305 303 303 303 303 305 303 302 304 306 305 306 307 306 305 305 303 303 304 305 305 305 305 305 304 304 303 303 303 303 302 302 302 303 302 302 302 302 301 300 301 301 301 301 301 301 301 301 301 300 299 299 298 296 296 295 294 294 294 296 304 312 315 314 314 314 315 315 317 318 318 318 318 319 319 320 320 319 318 319 321 322 322 323 325 326 325 325 325 325 325 326
304 303 305 310 313 309 303 302 303 302 304 303 302 309 315 310 306 305 305 306 305 304 303 303 304 305 305 305 304 304 304 304 303 303 303 302 302 302 303 302 302 302 302 301 301 301 301 301 301 301 301 301 301 301 300 299 299 299 297 296 296 295 294 294 294 297 305 313 315 315 314 315 315 317 318 319 319 318 318 318 318 319 320 320 320 319 319 321 322 324 325 325 325 325 324 324 325
307 303 305 312 314 308 303 302 303 304 305 303 303 310 317 313 307 305 305 306 305 305 304 304 304 305 305 305 304 304 304 304 304 303 303 302 303 303 302 303 302 302 302 302 301 300 301 301 301 301 301 301 301 301 301 300 299 299 298 297 296 296 295 294 295 295 297 305 312 315 315 315 315 315 317 318 318 318 318 318 317 317 320 321 322 320 320 321 321 323 324 324 324 324 323 323 324
310 305 310 314 312 309 305 301 301 304 303 302 304 311 316 312 307 305 305 306 305 305 305 305 304 305 305 305 304 304 304 304 304 303 303 303 303 303 302 302 302 302 302 302 301 300 300 301 301 300 301 301 301 301 301 300 299 299 299 298 296 296 296 295 295 295 295 297 304 312 315 315 314 314 315 316 317 317 317 318 318 318 320 320 321 321 322 322 322 323 324 323 323 324 323 322 323
315 312 314 314 311 310 308 303 300 301 302 302 305 309 313 309 305 305 305 305 305 304 305 305 305 305 304 304 304 304 304 304 304 303 303 303 303 302 302 302 302 302 302 302 302 301 301 300 300 300 300 301 301 301 301 301 300 299 299 299 297 296 296 296 295 295 295 295 297 304 311 315 315 314 314 315 315 316 316 317 317 318 318 319 319 320 320 321 321 322 323 323 322 323 323 323 323
320 319 317 310 310 310 310 308 301 300 302 305 305 305 311 309 303 305 306 304 304 304 305 306 305 305 304 304 304 304 304 304 304 304 303 303 303 302 302 302 302 302 302 302 302 302 301 300 300 300 300 300 300 301 301 301 301 300 299 299 299 298 297 296 296 296 295 296 295 297 302 309 314 315 315 314 314 315 315 316 316 317 317 317 318 318 318 319 320 320 321 321 321 321 322 322 322
315 319 317 310 312 311 311 311 303 301 305 306 306 305 310 309 302 304 307 304 304 304 305 306 305 305 305 304 305 304 304 304 304 304 304 303 303 303 302 302 303 302 302 302 302 302 302 301 301 300 300 300 300 300 301 301 302 301 300 299 299 299 298 297 297 297 296 296 296 295 296 300 307 312 315 315 315 314 314 315 315 315 316 317 317 317 317 318 319 319 320 320 319 319 319 320 320
312 313 313 311 314 312 310 311 304 300 305 308 309 309 310 309 305 304 305 304 303 305 305 305 305 306 305 305 304 304 304 304 304 304 304 303 303 303 303 303 303 303 302 302 302 302 302 302 301 301 301 301 300 300 300 301 302 302 302 301 300 300 300 299 298 297 297 296 296 296 295 296 298 304 310 314 315 315 314 314 314 314 314 315 316 317 317 317 317 318 318 318 319 318 318 318 318
309 310 312 310 312 315 312 309 302 298 306 310 308 310 309 308 308 303 303 303 303 304 305 305 306 306 306 305 304 305 304 304 304 304 304 303 303 303 303 303 303 303 302 302 302 302 302 302 302 301 301 301 301 301 301 301 301 302 302 302 301 300 300 300 299 298 297 297 296 296 296 296 295 297 301 306 312 314 315 314 314 314 314 314 315 315 315 315 315 315 315 316 316 317 317 317 317
307 309 312 311 310 315 309 304 303 299 304 311 307 308 310 310 311 304 301 303 304 304 305 305 306 306 306 305 304 304 304 304 304 304 304 304 304 303 303 303 303 303 303 303 302 302 302 302 302 302 301 301 301 301 301 301 301 301 302 302 302 301 300 299 299 299 298 297 297 297 296 296 296 296 296 298 302 308 312 314 314 314 314 314 314 314 314 314 314 314 314 314 314 315 315 315 315
309 309 312 313 310 311 309 304 304 301 303 314 310 306 311 314 313 305 300 302 305 305 305 305 306 305 306 305 305 304 304 305 305 304 304 304 304 304 304 304 303 303 303 303 303 303 302 302 302 302 302 302 302 302 301 301 301 301 301 302 301 301 301 300 299 299 299 298 297 297 297 297 296 296 296 296 296 299 303 307 309 311 314 314 314 313 313 313 314 313 313 313 313 314 314 314 314
309 310 313 314 308 309 313 309 305 302 302 310 308 305 315 318 314 310 303 301 304 304 305 306 305 305 306 305 305 305 305 305 305 304 304 304 304 304 304 304 304 304 303 303 303 303 303 303 303 302 302 302 302 302 302 301 301 301 301 301 301 301 301 301 300 299 298 299 298 298 298 297 297 297 296 296 296 296 297 298 300 303 307 310 312 313 313 313 313 313 313 313 312 312 312 312 312
309 310 311 310 307 307 310 307 304 306 303 303 306 313 325 324 318 317 308 302 305 305 305 306 306 305 306 305 305 305 305 305 304 305 304 304 304 304 304 304 304 304 304 304 304 304 304 303 303 303 302 302 302 302 302 302 302 301 301 301 301 301 301 301 301 300 300 300 299 299 299 298 298 297 297 297 296 296 296 296 296 296 298 300 303 305 308 310 311 312 312 312 312 312 311 311 311
311 308 306 305 305 304 306 305 306 316 314 303 305 318 332 328 321 319 315 311 310 305 304 306 307 307 306 306 306 305 305 304 304 304 304 304 304 304 304 304 304 305 304 304 304 304 304 304 303 303 303 303 303 303 303 302 302 302 301 301 301 301 301 301 301 301 301 301 300 300 300 299 299 298 298 297 297 297 296 296 295 295 295 295 296 297 299 301 304 306 308 310 312 312 311 311 310
313 306 303 303 304 304 306 307 308 318 317 304 305 316 326 331 327 319 315 316 315 308 304 306 306 307 307 307 306 305 305 305 305 305 304 304 304 304 304 305 305 305 305 304 304 304 304 304 304 303 303 303 303 303 303 303 303 302 302 302 301 301 301 301 301 301 301 301 301 300 300 300 299 299 298 298 298 297 297 297 296 296 295 295 295 295 295 295 297 298 300 302 306 308 309 310 311
311 305 303 305 304 304 305 307 310 312 311 308 310 312 314 326 330 318 311 313 315 314 311 307 306 307 307 306 306 306 306 305 305 305 305 305 304 304 304 305 305 305 304 305 304 304 304 304 304 303 303 303 303 304 304 304 303 303 303 302 302 301 301 301 301 301 301 301 301 301 301 300 299 299 299 299 298 298 298 297 297 297 296 296 295 295 294 294 294 295 295 296 297 299 301 304 308
307 302 302 303 302 304 304 307 313 311 310 317 317 308 312 328 330 317 310 311 315 320 320 312 306 307 307 306 307 306 306 306 305 305 305 305 304 304 304 304 305 305 304 305 305 305 304 304 304 304 303 303 303 304 304 304 304 304 303 303 303 302 302 302 301 301 301 301 301 301 301 301 300 300 299 299 299 298 298 298 298 297 297 297 296 295 295 294 294 294 294 294 294 295 295 297 300
302 298 300 302 302 304 304 307 313 313 316 320 314 306 313 329 333 321 312 312 317 322 321 312 306 307 307 306 307 306 306 306 306 306 305 305 305 304 304 304 305 305 304 305 304 305 305 304 304 304 304 303 303 304 304 304 304 304 304 304 304 303 303 302 302 301 301 301 301 301 301 301 301 301 300 300 299 299 299 298 298 298 298 297 297 296 296 295 295 294 294 294 294 294 294 294 295
299 300 302 304 305 304 305 309 311 316 325 321 309 306 310 322 333 326 314 314 318 318 316 309 305 307 307 306 307 306 306 306 306 306 306 305 305 305 305 305 305 305 305 304 304 304 305 304 304 304 304 303 303 304 304 304 304 304 304 304 304 304 304 303 303 302 301 301 301 301 301 301 301 301 301 300 300 300 299 299 299 298 298 298 297 297 297 296 296 295 295 294 294 294 293 294 294
299 304 306 308 314 311 312 319 317 319 329 319 308 307 307 316 328 324 318 317 313 310 311 311 307 307 307 306 307 306 306 306 306 306 306 306 306 305 305 305 305 305 305 304 304 304 304 304 304 304 304 304 303 304 304 304 304 304 304 304 304 304 304 304 304 303 302 301 301 301 301 300 300 300 300 300 301 300 300 300 299 299 298 298 298 297 297 297 296 296 295 295 295 294 294 294 294
304 310 313 320 330 323 322 331 324 323 324 310 305 306 308 316 322 320 322 322 311 303 306 309 306 306 308 307 306 306 306 306 306 306 306 306 305 305 305 305 305 305 305 305 304 304 304 304 304 304 304 304 303 303 303 303 304 304 304 304 304 304 304 304 304 304 303 302 302 301 301 301 300 300 300 300 300 300 300 300 300 300 299 299 299 298 298 297 297 297 297 296 296 296 295 295 295
310 313 315 325 333 326 328 329 319 320 321 308 301 306 315 320 317 317 319 315 308 303 303 306 306 306 307 307 307 307 307 307 306 306 306 306 305 305 305 305 305 305 305 304 304 304 304 304 304 304 304 303 303 303 303 303 303 303 303 304 303 304 304 304 304 303 304 303 303 302 302 301 301 300 300 300 300 300 300 300 300 300 300 300 300 299 299 299 298 298 298 297 297 297 297 296 296
308 305 309 321 323 319 324 326 321 320 321 313 305 309 323 323 314 314 310 305 303 303 304 305 306 306 307 306 307 307 307 307 307 306 306 306 305 305 305 305 305 305 305 305 304 304 304 304 304 304 304 303 303 303 303 303 303 303 303 303 303 303 303 303 303 303 303 303 303 303 303 302 301 301 300 300 300 300 300 300 299 300 300 300 300 300 300 300 299 299 299 298 298 297 297 297 296
305 302 312 319 315 316 316 313 314 313 315 320 313 312 322 319 312 309 304 302 303 303 304 304 305 306 306 306 307 307 307 307 307 307 306 306 306 305 305 305 305 305 305 305 305 305 304 304 304 304 304 303 303 303 303 303 303 303 303 303 303 303 303 303 303 303 303 303 303 303 303 303 302 302 301 301 300 300 300 300 300 300 300 300 300 300 300 300 300 300 299 299 298 298 298 297 297
308 310 315 308 303 314 316 307 305 305 313 323 317 314 320 314 311 313 308 307 307 305 304 304 305 306 305 306 307 307 308 307 307 307 306 307 306 306 305 305 305 305 305 305 305 305 305 304 304 304 304 303 303 303 303 303 303 303 303 303 303 303 303 303 302 303 303 303 303 303 303 303 303 303 302 302 302 301 301 301 301 301 300 300 300 300 300 299 299 299 299 299 299 299 298 298 297
312 317 310 302 301 310 314 312 316 316 319 324 317 316 321 315 315 320 313 312 316 312 306 303 305 306 305 307 308 308 308 307 307 307 306 307 307 306 306 305 305 305 305 305 305 305 305 304 304 304 304 303 303 303 303 303 303 303 303 303 303 303 303 302 302 302 302 303 303 303 303 303 303 303 303 303 303 302 302 302 302 302 302 301 301 300 300 300 299 299 299 299 299 298 299 299 298
305 308 303 304 310 314 314 316 321 321 319 323 320 316 315 315 322 325 315 315 322 320 312 307 306 306 306 307 308 308 308 307 307 307 306 307 306 306 306 306 306 306 306 306 305 305 305 305 305 304 304 304 303 303 303 303 303 303 303 303 303 303 303 303 303 303 302 302 303 303 303 303 303 303 303 303 303 303 303 303 303 303 302 302 302 301 301 300 300 300 299 299 299 298 298 299 298
302 305 302 305 311 312 312 311 312 317 319 320 322 323 322 320 323 325 319 320 322 321 319 312 307 308 308 308 308 308 308 307 307 307 306 306 306 307 307 307 307 306 306 306 306 306 306 305 305 305 305 304 304 304 304 304 304 303 304 304 303 303 303 303 303 303 303 303 303 303 303 303 303 303 303 303 303 303 303 303 303 303 303 303 302 302 302 301 301 301 300 300 299 299 299 299 298
306 310 308 309 307 303 305 306 305 313 320 320 318 323 328 321 317 320 322 324 321 316 314 309 306 308 309 307 308 308 307 308 307 307 307 307 306 307 307 307 307 306 307 306 306 306 306 306 306 305 306 305 305 304 304 304 304 304 304 305 304 304 303 303 303 303 303 303 303 303 303 303 303 304 303 303 304 304 303 304 304 304 303 303 303 303 302 302 302 302 301 301 300 300 299 299 299
303 307 308 311 310 308 315 314 305 306 313 316 315 318 324 318 313 317 318 315 311 306 304 305 306 309 308 307 308 307 307 308 307 307 307 307 307 307 306 306 306 307 307 306 306 306 306 306 306 306 306 306 306 306 305 305 305 305 306 305 305 305 305 305 304 304 304 304 304 304 304 304 304 304 304 304 304 304 304 304 305 305 304 304 304 304 303 302 302 302 302 301 301 301 300 300 300
Wind_Speed
7 8 8 7 5 4 4 5 6 6 3 4 2 1 1 2 1 2 5 3 1 1 6 8 9 10 7 6 7 6 5 3 1 1 2 10 16 18 20 21 21 21 22 22 23 23 23 24 24 24 25 26 27 28 27 27 26 25 26 26 26 25 24 23 21 22 25 27 26 24 23 23 22 21 19 17 15 13 14 15 16 18 20 21 20 18 18 17 16 15 15 14 12 11 10 12 13
8 9 8 7 6 4 4 8 4 3 5 4 2 1 2 3 3 2 4 3 1 3 8 10 10 10 9 9 8 6 5 3 1 3 8 13 17 17 19 21 22 23 24 24 23 23 23 23 23 23 24 25 25 26 26 26 26 26 25 25 25 26 26 26 24 22 22 25 27 27 25 24 24 24 21 20 19 15 14 14 15 17 20 20 21 20 20 19 18 17 16 15 15 14 13 15 13
8 8 7 8 6 7 6 8 4 2 5 3 2 3 1 2 0 2 3 3 2 6 5 5 5 6 5 5 4 3 2 3 1 7 10 14 19 20 21 22 23 24 24 24 23 22 22 22 23 23 23 23 24 25 25 26 26 26 26 25 25 25 25 26 26 25 22 22 24 27 28 26 25 26 25 23 21 19 17 15 13 14 18 19 21 22 22 21 19 18 18 16 16 16 14 16 13
9 9 7 7 7 8 6 5 3 4 4 3 1 3 1 2 4 4 2 5 3 6 2 3 3 4 5 3 2 1 3 5 3 8 12 15 20 22 23 23 24 24 24 23 22 22 21 21 22 22 22 23 23 24 25 26 26 26 27 27 27 26 26 25 26 26 25 24 22 24 28 29 28 27 28 27 24 22 21 20 14 11 15 18 20 22 23 23 21 21 19 16 16 16 14 17 15
7 8 6 5 5 5 5 4 2 4 3 4 2 2 2 4 4 3 1 7 5 1 3 1 1 2 4 5 2 1 5 5 5 10 13 17 19 21 23 23 24 24 24 23 22 22 21 21 21 21 22 22 23 23 24 25 26 27 27 28 29 29 28 27 26 26 26 25 24 22 24 28 30 29 29 29 28 26 23 23 19 14 14 16 17 20 23 24 23 23 21 18 17 17 16 18 17
7 8 8 8 10 7 5 5 3 4 2 3 3 2 4 3 3 3 1 3 8 6 2 2 2 1 2 4 4 3 7 7 8 12 15 18 20 22 23 23 24 23 23 22 21 22 21 21 21 22 22 22 23 23 24 25 25 26 28 29 30 30 30 29 28 26 26 26 24 22 22 24 28 30 30 29 31 32 28 23 23 21 18 16 14 15 20 24 24 22 23 21 20 20 18 19 17
9 7 8 11 12 8 5 5 4 3 1 2 2 2 4 3 2 4 3 1 4 7 5 3 2 1 1 2 2 5 10 11 11 14 17 19 20 22 23 23 23 22 21 20 20 20 21 21 21 21 22 22 22 23 23 24 25 25 27 29 30 32 32 31 29 28 27 26 24 24 22 21 24 27 30 30 31 33 33 29 26 25 22 19 16 11 13 21 25 23 24 24 22 21 20 19 18
7 5 8 9 6 6 5 4 2 1 0 1 1 1 3 5 3 2 4 2 1 5 6 4 2 1 0 1 0 3 11 13 13 15 18 20 20 22 23 24 23 22 21 20 20 19 20 20 20 20 21 21 22 22 23 24 24 25 26 28 30 32 33 32 30 30 28 27 25 25 25 23 21 22 27 31 33 32 34 34 31 29 27 24 21 17 14 16 21 24 24 24 23 22 21 19 19
6 8 9 8 4 5 4 3 2 1 0 2 1 1 3 4 4 2 3 4 2 3 6 5 2 1 1 2 0 2 10 13 14 16 18 20 20 21 22 23 23 22 21 20 19 19 19 20 20 20 21 21 21 22 22 23 24 24 26 27 29 31 32 32 31 30 29 29 27 26 26 26 23 20 23 28 32 34 34 35 35 34 32 29 25 22 19 13 16 22 24 25 26 24 23 21 20
9 11 9 6 4 5 4 1 1 1 1 2 2 3 3 3 4 4 3 3 3 2 4 4 2 2 1 2 2 3 10 13 14 15 18 20 20 20 20 22 22 21 20 19 19 19 19 20 20 21 21 22 22 23 23 23 24 24 26 27 29 30 31 31 30 29 29 29 28 27 26 27 26 22 21 23 27 32 34 35 36 35 35 34 30 25 22 17 15 20 23 26 26 25 24 22 20
7 9 8 6 4 4 2 2 1 0 2 4 2 2 3 2 2 4 3 2 3 2 4 4 1 2 0 3 3 4 10 12 13 15 16 19 21 20 19 20 21 21 19 18 18 19 19 20 20 21 21 22 23 24 24 24 24 24 26 28 29 29 29 29 29 29 29 29 28 28 27 27 27 25 23 23 24 27 31 34 35 35 36 35 34 30 26 23 19 18 20 23 25 25 25 22 20
5 4 6 5 3 3 3 4 2 1 5 3 1 1 2 2 2 2 3 2 3 3 6 6 1 0 1 3 3 6 10 11 13 15 16 18 21 21 20 19 20 20 19 19 19 19 20 20 20 20 21 23 24 24 25 25 25 25 26 28 29 29 30 29 30 30 29 29 28 28 28 27 27 27 25 23 23 25 27 31 32 33 34 34 34 34 31 27 22 20 20 20 24 27 27 25 22
9 2 6 5 1 3 4 4 1 1 4 2 2 1 2 2 3 3 2 2 5 4 5 7 2 1 2 3 3 8 10 11 14 15 17 18 20 22 20 18 18 18 19 19 19 19 20 20 21 21 22 23 24 24 24 25 25 26 28 29 30 30 31 31 31 32 32 31 30 29 28 28 27 27 26 24 23 24 26 27 28 28 32 35 34 35 36 32 26 24 21 20 25 28 27 26 23
12 5 7 4 1 3 4 3 0 2 1 3 2 1 1 2 2 2 2 2 4 3 3 6 3 1 2 3 3 8 10 10 13 14 16 17 19 22 20 17 17 18 19 19 20 20 20 21 21 22 23 23 24 24 24 24 25 27 29 31 32 33 33 33 32 32 32 31 30 30 28 28 27 26 25 25 24 24 25 25 26 26 29 33 34 34 35 34 30 27 25 21 24 26 26 26 24
15 10 7 4 2 2 2 2 2 4 2 3 1 0 2 3 2 0 1 1 2 3 2 4 3 1 2 4 4 8 10 10 13 13 15 16 18 20 20 16 15 17 18 19 19 20 21 21 22 22 23 24 24 24 24 24 25 26 28 30 32 35 37 37 33 31 30 28 26 27 27 26 25 23 23 24 24 23 24 24 25 25 27 29 31 32 33 34 32 29 26 22 22 24 24 25 26
15 10 6 4 2 1 2 2 3 4 3 4 2 2 3 2 1 0 1 1 2 3 3 2 3 2 2 4 5 8 9 11 12 12 14 16 18 19 19 16 15 15 16 17 18 19 20 21 22 23 24 24 24 24 24 24 24 25 27 29 31 34 37 37 33 30 29 27 24 22 22 22 20 19 21 24 24 23 23 24 24 24 26 27 27 28 30 33 34 31 26 21 22 23 23 25 28
10 7 6 4 3 3 4 3 4 3 3 4 4 4 2 1 2 1 2 3 4 4 4 3 3 2 3 4 5 7 9 10 11 13 14 15 18 20 20 18 16 15 15 16 18 19 20 22 23 24 25 25 25 25 25 25 24 24 26 28 30 33 36 36 32 29 27 26 23 20 19 18 17 19 22 24 25 23 22 23 23 23 23 24 24 25 27 29 33 34 28 21 22 23 24 27 28
6 4 6 4 2 3 4 6 5 2 3 4 4 5 2 1 2 2 3 4 5 7 6 4 4 3 3 4 5 8 9 11 12 13 15 15 18 21 22 21 19 18 17 17 18 20 21 23 24 25 25 25 25 26 26 25 24 25 26 28 30 33 35 36 33 28 25 23 21 20 19 19 20 21 22 22 22 22 21 21 22 21 21 22 23 22 24 26 29 32 31 24 22 22 23 27 29
9 4 5 3 4 2 2 5 5 1 4 5 4 4 3 2 2 2 3 4 5 6 7 5 5 3 3 5 6 8 10 11 12 13 15 16 18 21 22 23 22 20 20 19 20 22 23 24 25 25 25 25 25 26 26 25 25 25 26 28 31 32 34 36 34 27 23 21 21 21 21 21 21 21 22 20 18 18 18 18 19 19 19 19 20 20 21 23 25 28 30 28 24 22 23 27 28
8 5 5 1 5 3 2 3 3 3 6 7 5 4 3 2 2 3 3 4 5 6 7 6 5 3 4 5 6 8 9 10 11 13 15 16 17 19 21 23 23 22 20 20 21 22 24 25 25 26 26 26 25 25 25 24 25 25 26 29 31 32 33 35 34 28 22 21 20 21 20 20 20 20 20 19 15 15 14 13 15 17 16 16 17 18 18 20 22 24 27 29 27 23 23 26 28
6 5 4 3 5 4 3 3 4 6 7 7 6 4 2 1 2 3 3 3 5 8 8 7 6 4 4 5 6 7 9 10 11 12 14 16 16 18 19 21 22 22 20 19 20 22 25 26 26 26 26 26 25 25 25 25 26 26 26 29 30 31 32 35 36 31 24 20 18 19 19 20 20 20 19 19 16 13 10 9 12 14 14 13 14 15 16 17 20 21 24 27 28 26 24 24 27
8 5 3 4 5 3 3 4 7 7 5 5 4 2 1 2 3 4 4 4 4 6 5 6 5 4 6 7 7 8 9 10 11 11 14 16 16 17 18 19 21 21 19 19 19 21 24 25 25 25 26 25 25 25 25 26 27 27 27 28 30 31 31 34 36 34 29 24 20 20 22 22 21 20 19 19 18 13 9 6 9 12 12 11 11 11 13 15 18 18 20 24 26 26 25 24 25
7 4 4 5 5 6 5 5 6 4 3 4 1 1 3 4 3 4 7 8 7 6 5 5 4 5 7 8 9 9 10 10 11 12 14 16 17 17 17 18 21 21 19 18 19 20 23 25 25 25 25 25 24 24 24 25 26 26 27 28 30 31 31 32 35 35 33 28 24 24 24 23 22 21 20 20 19 15 10 7 7 10 11 10 9 9 10 13 15 17 18 22 23 22 23 27 27
11 3 3 7 8 9 7 6 5 2 2 2 2 2 3 3 2 6 9 9 7 6 7 7 7 7 8 9 10 10 11 11 12 12 14 17 18 17 17 18 19 21 19 17 18 19 22 24 24 24 25 25 24 24 24 24 26 26 26 27 29 30 30 30 33 35 34 31 26 24 24 24 24 23 22 22 21 18 14 9 6 7 9 9 8 8 9 11 12 14 16 19 20 18 19 25 29
10 3 3 7 8 9 8 6 5 3 1 1 3 3 3 2 4 8 9 6 5 6 8 8 9 10 10 10 11 10 11 11 12 13 13 16 19 17 15 17 18 20 19 17 17 18 21 23 23 23 24 25 25 24 24 24 25 25 26 27 28 30 30 29 30 33 35 34 30 25 24 24 25 25 24 23 23 21 17 12 7 3 4 7 7 6 7 9 10 11 12 13 16 18 15 18 26
4 6 6 7 7 7 7 5 4 2 1 2 3 4 3 2 5 7 6 4 5 6 7 8 10 10 10 10 10 11 11 11 12 13 13 16 18 17 15 16 17 18 18 16 17 17 19 22 22 23 24 25 25 25 24 24 24 25 25 26 28 29 30 29 27 30 34 36 34 29 24 23 24 25 25 23 22 21 20 17 11 5 3 5 7 6 5 6 7 7 9 9 12 16 12 11 16
11 13 12 11 9 6 4 3 2 1 2 3 3 5 4 2 2 4 4 3 5 6 6 8 10 10 10 10 10 10 11 12 12 13 13 15 18 18 16 15 16 17 17 15 15 16 18 20 21 22 23 24 25 25 25 24 24 24 24 25 26 28 29 29 28 27 30 34 35 32 27 23 23 25 24 22 21 19 18 18 15 11 9 9 10 9 6 4 4 4 5 7 9 12 10 10 12
18 15 12 8 7 7 5 2 2 3 2 3 3 5 4 1 1 6 6 4 5 6 7 8 9 10 10 10 10 10 11 12 13 13 14 16 18 19 16 15 16 16 16 15 14 15 17 19 20 20 21 23 24 25 25 24 24 24 24 24 25 26 28 29 29 28 27 29 31 33 31 26 22 24 23 20 21 20 17 17 15 12 11 10 10 9 8 5 3 1 3 4 7 9 8 9 12
12 8 6 5 4 7 7 3 5 4 2 5 4 5 4 2 5 6 6 5 6 7 8 9 10 10 10 10 10 10 11 12 12 13 14 15 17 19 17 15 15 16 16 15 14 15 16 18 19 19 20 21 23 24 24 24 24 24 24 24 25 25 26 27 29 29 27 26 27 30 32 29 23 22 22 20 18 17 18 19 16 13 10 9 8 6 6 5 3 2 1 3 5 6 6 8 9
5 3 4 3 5 5 6 6 6 2 1 4 3 3 5 6 8 6 6 8 7 8 8 8 9 10 9 9 10 10 10 12 12 13 14 15 16 18 17 15 15 16 16 15 14 14 15 17 18 18 18 19 21 23 23 23 23 23 23 24 24 24 25 26 27 28 27 26 25 27 29 31 27 21 19 20 17 13 14 17 17 16 12 11 11 7 3 4 4 4 2 1 2 4 5 6 6
3 2 3 2 2 2 4 6 7 2 2 3 2 1 5 7 6 4 8 11 9 10 9 8 10 10 9 9 10 11 10 12 12 12 14 14 16 17 17 15 14 15 16 16 14 14 14 16 17 18 17 18 20 21 22 22 22 22 22 23 23 23 24 25 26 27 28 27 26 25 26 28 30 26 20 16 15 14 14 15 14 14 14 13 14 12 8 7 7 7 5 4 2 1 1 2 5
3 1 2 3 3 1 5 3 7 4 4 3 3 1 5 7 6 4 6 10 12 13 11 10 10 10 9 9 10 11 11 12 12 13 13 13 15 16 17 16 15 15 16 16 15 14 14 15 16 17 17 17 18 19 21 21 21 21 21 21 21 22 22 23 25 26 27 27 27 26 25 25 27 28 26 20 16 15 15 14 13 12 12 12 12 13 13 12 11 9 7 6 7 5 3 1 3
4 2 1 3 2 1 4 1 5 6 4 3 2 2 4 4 4 5 3 8 12 16 16 13 11 11 10 10 11 12 12 12 11 11 11 12 13 15 16 16 16 16 16 17 16 15 14 15 15 16 17 17 17 18 19 20 20 20 19 19 19 20 21 21 23 24 24 25 26 26 25 25 24 25 26 25 22 18 16 15 14 13 11 11 11 11 12 13 12 11 9 9 8 5 2 1 4
4 3 3 1 0 1 3 2 5 9 3 2 2 2 6 6 8 10 10 10 12 17 19 16 13 13 11 11 12 12 12 12 10 8 9 10 12 14 15 16 16 16 16 17 17 16 15 15 16 16 17 17 17 18 19 20 20 19 18 18 18 18 19 21 21 21 22 23 24 25 25 24 24 23 23 24 24 22 20 18 16 14 13 11 11 11 13 13 13 11 9 8 8 6 3 2 4
1 2 2 1 2 2 3 3 3 9 5 3 3 3 9 11 14 19 17 11 12 17 19 18 16 15 14 13 12 11 12 11 9 8 8 10 11 12 14 15 16 16 16 16 16 17 17 16 16 17 17 17 17 18 18 19 19 18 17 16 16 17 18 19 20 20 20 22 22 23 24 24 23 22 22 21 22 23 22 22 21 18 16 13 11 12 13 14 14 12 10 8 7 6 4 2 1
5 3 3 1 2 4 5 5 2 5 4 4 3 4 9 10 13 18 15 8 11 16 17 18 18 17 15 14 13 12 11 10 8 8 9 10 11 12 12 14 15 15 15 16 16 16 17 17 17 17 18 18 18 18 18 18 18 18 18 17 16 17 18 18 19 19 19 20 21 21 21 22 22 22 22 20 20 21 22 22 21 21 19 16 13 13 13 14 14 13 11 10 8 6 5 3 1
5 4 3 2 2 4 4 4 4 5 3 4 2 3 9 11 11 14 12 8 10 14 16 17 17 16 16 15 14 13 12 10 9 10 10 10 11 11 12 13 14 14 14 15 16 16 16 16 16 17 17 18 19 19 19 20 20 20 20 19 19 19 19 18 18 18 18 18 19 19 19 20 21 21 21 20 19 18 19 19 19 19 19 17 16 16 15 14 14 13 12 10 9 8 6 4 2
4 3 2 0 2 5 4 3 4 7 3 3 3 6 11 11 9 11 10 6 8 11 13 14 14 14 14 14 15 14 13 11 10 11 10 10 11 11 11 12 13 13 13 14 15 15 16 16 16 16 16 18 18 19 19 20 21 21 21 20 20 19 19 19 18 18 18 18 17 17 17 18 19 19 20 19 19 18 16 16 16 17 17 17 17 16 16 15 14 13 12 11 9 9 8 6 5
3 1 1 1 2 4 5 3 4 6 1 3 6 7 11 10 8 10 8 6 7 7 9 11 12 13 13 14 14 14 14 13 12 11 10 10 11 10 11 11 12 13 13 14 14 14 15 15 16 16 16 17 17 18 18 18 19 19 19 19 19 18 18 18 18 18 17 16 16 16 16 17 17 18 18 18 18 18 17 16 15 15 15 16 16 15 15 14 14 13 12 11 10 10 9 8 6
3 3 3 2 3 3 3 3 6 5 0 3 5 4 8 7 6 7 5 4 7 6 9 11 11 14 15 15 15 16 16 14 13 12 11 10 10 10 10 11 12 13 13 13 13 14 14 14 15 15 15 16 16 17 17 17 17 17 17 17 16 16 15 15 14 14 15 14 15 15 15 16 17 17 17 17 17 17 17 16 16 15 14 14 13 13 12 12 12 12 12 11 10 9 8 7 6
3 2 4 1 4 2 3 4 7 5 1 2 4 3 5 4 4 5 4 5 7 6 8 11 10 12 14 14 14 14 14 13 13 14 12 11 11 10 11 11 12 12 12 13 13 13 14 14 14 15 15 16 16 17 17 16 16 16 16 16 15 14 13 13 11 10 11 12 13 14 14 15 16 16 16 16 16 16 15 15 15 15 14 13 12 11 10 9 9 10 9 9 9 8 6 5 4
3 1 3 1 2 3 4 5 6 4 3 3 4 4 5 5 3 6 5 6 7 7 8 10 8 8 10 11 12 11 11 11 13 14 13 12 11 11 12 12 13 13 12 13 13 13 14 14 14 14 14 15 16 17 17 17 17 16 17 16 17 16 16 15 14 13 12 12 12 13 14 14 14 14 14 14 14 14 14 14 14 13 13 12 12 11 10 9 8 7 6 5 5 5 5 4 3
2 1 4 3 2 1 3 5 4 3 1 3 4 4 3 6 5 6 4 6 8 8 9 10 8 6 7 9 9 10 10 10 11 12 12 12 12 13 13 12 12 13 13 14 13 12 13 14 14 14 14 14 15 16 17 17 17 17 17 17 18 18 17 17 17 16 15 14 13 12 12 12 13 13 13 13 13 13 13 13 12 12 12 11 11 11 10 10 9 8 7 5 4 2 2 1 2
1 1 4 4 2 1 1 3 2 1 2 3 5 4 1 4 5 5 4 5 8 8 9 9 6 4 6 7 8 9 9 9 10 11 11 12 13 14 15 14 13 13 15 15 14 13 13 13 14 14 13 14 15 16 16 17 18 18 18 18 17 17 17 17 16 16 16 15 14 13 11 11 11 11 12 12 12 12 11 11 12 11 11 11 11 10 10 10 9 8 8 8 6 5 4 3 3
2 3 4 1 2 2 2 3 1 2 1 3 6 5 1 5 6 5 5 4 7 7 7 7 6 5 5 7 7 8 9 9 11 12 13 14 15 15 16 16 15 14 15 17 16 14 13 13 13 13 12 13 14 16 16 17 17 18 18 18 17 17 17 17 16 16 16 15 14 13 12 11 10 9 9 10 10 11 11 11 11 11 10 10 10 10 10 9 9 8 8 8 7 7 7 6 4
1 5 3 2 3 3 2 3 1 2 3 2 6 5 2 4 6 4 3 2 6 7 6 7 7 6 6 7 8 8 9 10 11 13 15 15 16 16 17 17 16 14 15 16 16 15 14 13 13 12 11 12 14 15 16 17 17 17 17 17 17 16 17 17 16 15 15 15 14 13 12 12 11 10 8 8 8 9 10 10 10 10 10 10 10 10 9 9 9 8 8 8 8 8 7 7 6
3 4 3 3 3 2 2 2 2 4 3 4 5 3 2 3 5 3 2 3 5 4 4 7 7 7 6 6 8 9 10 11 12 13 14 15 15 15 16 17 16 15 15 16 16 15 15 14 14 13 11 11 14 15 16 17 17 17 16 16 16 16 16 16 16 14 14 15 14 13 12 11 11 11 10 9 8 8 8 8 8 9 10 10 10 10 10 10 9 9 9 9 9 9 9 8 8
3 2 2 2 2 2 2 5 4 4 3 5 4 2 1 2 5 5 5 6 6 5 4 5 7 8 7 7 8 10 12 13 13 14 14 14 14 15 15 16 15 15 15 15 15 15 14 14 15 14 12 11 13 15 15 16 16 16 16 16 16 16 16 16 16 15 14 14 15 14 13 12 11 11 11 11 10 9 8 7 7 8 8 9 10 10 11 11 11 11 11 11 10 11 10 10 10
3 3 3 3 3 4 3 4 3 0 4 2 2 1 1 4 8 6 7 7 7 8 10 8 8 9 9 9 10 12 13 14 14 14 14 14 14 14 15 15 16 16 16 16 15 15 15 14 15 15 14 12 13 14 15 16 15 15 16 15 15 16 16 16 16 15 14 14 15 15 14 13 12 11 11 12 12 11 10 9 8 8 8 8 9 9 10 11 12 12 13 13 13 13 13 13 13
3 2 3 3 3 4 2 3 2 3 4 1 1 2 2 4 6 7 9 8 7 9 12 12 11 11 11 11 12 13 13 13 14 14 14 14 13 13 14 14 16 17 18 18 17 16 16 16 16 16 16 14 14 15 15 15 15 15 16 15 16 16 16 16 16 15 15 15 15 15 15 14 13 12 11 11 12 12 11 10 10 9 9 10 10 10 10 10 11 12 13 13 14 15 15 15 15
2 2 3 4 4 3 1 3 2 3 5 3 3 2 2 2 3 5 9 9 9 9 10 12 14 13 13 13 13 13 12 12 13 14 14 14 13 13 14 14 15 17 18 18 17 17 17 18 18 18 17 16 16 16 16 16 15 15 16 16 16 17 17 17 16 16 15 16 16 16 15 14 14 13 12 12 13 13 13 12 12 12 12 12 12 12 11 11 11 12 12 13 14 14 15 16 17
1 1 3 3 2 4 2 2 4 2 3 4 2 2 5 4 4 5 6 9 10 9 9 11 14 15 14 15 14 12 12 11 11 13 14 14 14 14 14 14 15 16 18 19 19 18 19 19 19 19 18 18 18 18 17 16 16 16 16 16 16 17 17 18 17 17 17 17 17 16 15 15 15 14 14 14 14 15 15 15 14 14 14 15 15 14 14 13 13 13 12 13 13 14 15 16 17
1 2 2 1 3 5 4 1 0 3 1 4 2 3 6 4 3 5 6 7 9 9 10 12 15 16 15 16 15 12 12 12 12 15 16 15 14 14 15 15 16 17 18 18 19 19 20 21 20 20 19 19 18 19 19 18 17 17 16 16 16 17 18 18 18 18 19 19 18 18 17 16 16 16 16 16 16 16 17 17 17 17 17 18 18 17 17 16 16 16 15 14 13 14 15 16 17
2 3 2 2 3 4 4 1 3 5 1 4 3 3 6 3 1 5 7 6 8 8 9 12 15 17 18 17 14 12 13 13 14 16 16 14 14 14 15 16 16 16 18 18 19 20 21 22 21 20 20 19 18 19 19 19 18 18 18 17 17 17 17 18 19 19 20 20 20 19 19 19 18 18 18 18 18 18 18 18 19 18 19 19 20 20 20 19 19 19 18 17 16 15 16 17 17
3 5 3 2 2 1 2 2 1 3 2 5 5 4 4 3 3 4 3 4 7 7 6 7 13 18 19 17 14 12 13 14 16 17 15 13 13 14 15 16 16 17 18 19 18 19 20 21 21 21 20 20 19 19 18 18 18 19 19 19 18 18 18 18 19 20 20 20 20 20 21 20 20 20 20 20 20 19 19 19 20 20 20 20 20 21 21 22 22 23 22 21 19 19 20 19 18
3 3 2 1 3 2 1 2 1 1 1 3 5 5 3 5 6 5 6 8 7 7 5 6 13 17 17 16 14 13 14 16 18 18 15 14 14 14 15 16 17 18 18 19 18 18 18 19 19 20 20 20 20 19 19 18 18 18 19 19 18 19 19 20 20 21 21 21 21 21 21 21 21 21 21 21 21 20 20 20 20 21 21 21 21 22 22 23 24 25 25 25 24 23 24 23 21
1 2 2 1 2 2 1 1 2 2 2 1 2 5 6 6 5 7 9 8 7 8 7 8 14 16 15 16 15 15 17 19 21 18 15 15 16 16 16 17 18 19 19 19 19 18 17 17 17 18 19 19 19 19 19 18 17 18 18 18 18 18 19 20 21 22 22 22 22 21 21 22 21 21 21 21 20 19 19 19 19 20 20 20 21 22 23 24 25 26 27 27 26 27 27 27 26
1 0 1 2 2 3 2 2 2 2 2 3 2 3 9 7 4 7 8 6 7 9 8 11 16 16 15 17 17 18 20 22 21 18 17 17 18 17 17 18 19 19 20 20 19 19 19 17 17 17 18 18 18 19 19 19 18 18 17 17 17 18 18 19 20 21 22 22 22 22 22 22 21 19 20 20 19 18 18 17 17 17 18 18 19 20 22 24 25 27 28 28 28 29 30 30 30
Wind_Direction
138 145 154 147 141 138 41 47 58 24 69 85 29 35 321 289 27 14 332 340 82 46 74 72 52 55 69 91 107 101 82 95 97 39 313 308 323 325 324 326 327 329 331 335 336 337 339 341 344 345 346 348 347 348 349 347 348 347 344 341 338 337 333 326 313 298 287 284 281 274 263 251 244 245 248 245 247 258 261 265 264 255 249 246 244 242 242 240 240 238 237 240 235 229 213 222 238
136 142 143 141 129 131 52 51 87 360 55 72 323 178 275 325 35 353 295 300 238 129 95 70 61 67 77 97 97 87 66 67 87 332 316 314 323 328 330 331 333 335 336 339 339 338 339 341 343 344 345 348 347 347 347 346 347 346 345 343 341 337 334 332 326 317 298 285 279 276 276 267 251 242 244 246 245 244 247 255 260 259 255 251 246 245 245 242 239 234 231 238 238 236 227 225 233
130 138 138 145 111 91 74 47 83 74 70 89 285 243 298 15 356 247 294 314 181 137 106 48 59 58 61 92 65 65 35 11 345 325 328 331 334 339 341 341 340 340 339 340 340 338 339 340 341 342 344 346 346 345 345 345 345 345 344 344 343 338 335 333 329 326 315 300 284 273 272 273 265 250 240 242 245 240 239 243 248 260 262 256 249 247 248 245 238 233 227 228 235 236 234 232 230
123 129 128 139 96 62 61 44 95 106 101 138 247 275 314 163 216 223 42 36 136 171 241 337 63 57 57 71 48 96 4 352 341 333 339 347 345 344 345 345 344 342 342 341 339 339 339 339 339 340 342 343 343 343 343 343 343 344 344 343 342 338 334 330 328 325 322 316 304 285 273 268 267 262 250 242 243 241 238 238 235 247 259 258 255 250 248 248 242 238 230 218 225 231 228 231 234
127 130 125 138 85 56 78 73 84 87 134 173 132 288 289 211 222 240 59 52 68 181 259 301 90 77 70 62 68 80 360 356 352 347 349 354 351 345 345 346 345 343 342 340 339 339 338 338 339 340 340 340 341 341 341 341 342 341 342 342 341 338 334 330 325 322 320 318 314 303 287 273 266 264 260 251 245 242 240 238 232 232 245 251 258 256 252 251 245 242 238 223 215 221 224 228 235
129 127 103 95 81 76 88 73 75 69 157 167 117 261 293 247 242 291 289 68 56 50 69 96 74 72 88 62 68 56 16 9 358 355 356 356 352 347 345 346 345 343 341 339 338 338 338 338 339 339 339 339 338 338 339 339 339 339 339 340 340 339 336 331 327 322 318 315 314 309 299 286 275 266 262 259 253 247 242 239 234 230 234 239 248 260 259 253 246 242 242 234 218 214 221 228 231
122 115 77 85 69 56 79 83 107 85 159 162 134 245 305 306 297 337 360 100 60 44 56 65 39 35 86 42 57 44 20 12 3 0 360 356 352 348 344 344 344 342 341 339 339 338 337 337 338 338 337 336 336 336 337 337 337 338 338 339 340 340 337 334 330 325 319 314 311 308 301 292 285 275 265 260 257 254 249 243 237 233 233 234 233 245 260 253 248 243 240 239 230 216 214 226 230
127 112 74 86 51 37 83 83 104 146 183 276 226 254 337 350 353 358 26 61 76 28 30 16 337 348 342 335 214 24 15 10 5 3 1 356 351 348 343 342 342 343 343 342 342 340 339 338 338 337 336 335 335 335 334 336 337 338 339 339 339 339 338 335 332 327 322 317 309 304 301 295 288 281 272 262 256 256 254 250 244 238 236 234 230 231 243 254 251 245 240 240 238 225 214 221 230
108 102 85 85 73 62 72 60 65 147 308 339 337 2 9 23 32 61 50 60 71 20 22 20 3 35 277 326 303 351 5 8 6 4 3 358 350 346 343 341 341 343 344 344 344 342 341 340 340 338 336 335 334 334 334 336 338 340 340 340 339 338 336 334 331 327 323 319 312 303 299 296 291 282 275 268 261 256 256 254 249 243 239 236 231 230 232 244 251 243 237 235 235 233 220 214 224
83 83 92 82 80 80 64 55 50 81 278 306 321 358 25 41 53 74 80 62 42 14 17 28 58 84 204 319 348 344 358 5 8 5 5 2 354 347 342 342 339 342 344 344 343 341 342 341 342 340 337 335 335 336 338 339 340 341 341 340 339 337 335 333 331 327 323 319 314 306 298 293 291 285 275 271 268 261 258 255 251 248 245 242 238 234 230 231 240 238 236 234 230 232 222 208 217
74 63 91 83 70 93 118 150 86 77 293 313 323 360 29 15 57 61 67 75 26 34 28 25 95 97 294 326 1 357 355 4 6 3 3 2 359 351 342 341 338 339 341 341 341 340 341 341 342 339 337 336 338 340 341 342 342 343 342 340 338 338 336 333 329 325 321 316 313 308 301 293 288 284 278 271 267 265 261 257 254 251 250 250 247 241 236 234 238 239 237 236 230 229 224 208 213
95 34 77 79 81 125 158 139 126 290 320 335 27 357 15 11 92 69 56 77 7 32 34 25 47 143 348 345 23 7 359 4 3 360 359 359 359 354 344 340 338 335 336 338 338 338 339 341 340 338 338 340 342 344 343 343 344 343 342 340 340 339 336 332 328 322 317 312 309 305 301 297 290 284 279 272 267 266 263 260 256 253 251 253 252 246 243 240 239 240 237 233 230 228 225 215 211
108 97 86 84 100 116 124 119 151 322 346 293 196 5 31 42 96 95 66 43 8 33 31 19 355 236 343 338 15 8 5 5 2 1 358 356 356 353 346 339 337 333 334 337 337 338 340 341 340 339 341 343 345 346 345 345 344 344 343 343 343 341 337 332 327 320 314 310 306 302 298 295 292 287 282 276 270 265 263 261 257 253 249 250 251 247 245 245 242 241 237 230 228 225 223 220 213
104 96 90 102 56 80 117 110 151 124 3 258 227 2 69 92 107 83 38 18 4 28 7 5 358 255 339 345 356 2 8 8 2 1 358 355 354 351 347 341 338 335 335 337 340 342 342 342 341 341 343 344 345 346 346 347 345 345 345 345 346 344 340 335 330 325 319 315 309 302 296 291 290 289 286 282 275 266 262 261 258 252 247 246 247 246 244 245 244 240 235 225 226 227 221 221 216
102 92 86 101 61 50 133 145 132 127 184 232 193 42 102 106 114 6 359 15 346 14 354 359 16 320 336 356 344 353 7 8 1 357 353 355 353 350 348 346 342 340 339 340 344 344 344 344 343 343 345 346 347 348 348 348 347 346 347 347 347 346 343 340 338 336 331 329 322 309 298 291 290 290 287 284 280 272 263 260 258 252 248 245 244 245 244 242 242 240 237 225 222 228 221 220 218
91 90 82 86 90 115 145 148 130 120 211 217 173 148 118 120 131 204 305 328 305 340 349 349 14 358 341 349 344 357 6 0 355 351 350 353 353 352 352 351 349 347 345 344 346 346 346 344 345 347 348 349 349 348 349 349 348 348 348 349 349 349 347 344 343 343 341 340 337 325 312 302 298 295 289 285 281 276 267 259 257 253 249 246 243 243 243 241 240 241 243 231 219 223 219 220 219
74 77 69 83 113 155 161 163 160 153 222 219 189 172 136 202 212 237 275 278 277 306 331 327 326 319 319 333 344 355 358 352 349 347 348 349 350 354 355 354 353 353 352 350 349 349 348 346 346 348 349 352 351 349 350 348 347 348 349 351 351 352 351 347 345 346 345 344 342 337 329 320 311 302 294 289 283 276 268 259 254 252 251 248 246 242 242 242 239 239 243 235 220 219 219 219 220
56 80 71 97 142 136 159 178 185 158 164 192 198 189 175 217 241 270 267 265 273 292 305 301 285 273 294 319 336 341 345 346 346 348 348 348 350 353 355 355 354 353 355 356 353 350 349 347 345 345 347 352 353 350 350 348 347 349 351 353 354 355 354 350 347 346 346 344 342 341 337 330 325 321 314 303 290 279 267 259 252 249 249 248 247 245 243 242 240 239 240 240 229 218 217 218 219
53 94 84 105 190 145 140 181 187 161 149 168 184 191 207 232 255 270 255 274 288 294 296 289 275 274 311 327 334 334 338 341 343 349 349 349 351 352 353 354 353 352 354 356 355 351 349 349 346 344 346 350 352 351 350 349 348 351 355 356 356 358 356 352 351 349 352 354 349 345 343 341 342 341 335 323 308 292 273 260 253 247 243 243 245 247 245 243 241 240 238 239 235 219 214 218 218
38 66 84 176 199 136 69 161 169 160 150 143 145 171 199 230 258 246 237 287 286 266 277 281 277 293 325 328 331 327 332 338 341 348 351 351 350 351 352 351 351 349 351 354 354 351 349 349 347 345 345 347 350 350 351 351 351 355 358 358 359 1 359 355 354 353 359 7 5 358 354 354 353 350 344 337 329 311 288 265 254 247 238 234 240 245 247 245 241 241 239 236 236 225 215 219 218
38 48 104 164 161 111 71 142 139 136 144 135 132 141 145 212 265 243 232 292 280 264 270 269 267 286 308 315 325 325 328 335 338 345 350 350 349 349 350 349 349 347 348 352 353 351 348 347 346 344 344 346 348 349 352 354 354 357 359 360 1 3 2 358 356 358 360 6 13 12 7 2 358 359 359 351 343 330 310 275 252 246 236 226 231 241 247 247 242 241 239 236 236 229 214 214 217
65 39 95 120 138 115 85 133 132 127 138 136 127 123 222 272 281 259 232 225 258 284 281 260 260 276 293 309 323 326 328 330 333 342 348 349 348 346 347 347 347 346 346 350 352 350 349 348 346 345 345 346 346 348 353 356 356 358 0 2 4 6 7 1 358 1 1 2 10 14 14 11 8 9 10 2 352 346 335 293 251 241 231 218 219 234 244 247 243 240 241 240 239 232 218 215 219
95 49 59 82 112 112 110 137 134 132 146 145 154 300 290 281 280 275 251 243 263 290 274 256 269 278 287 306 318 323 326 327 329 338 346 348 346 344 344 346 346 346 346 349 351 350 349 349 347 345 346 345 345 349 353 356 357 359 0 3 6 8 10 6 2 4 5 5 11 16 17 14 13 14 15 13 5 358 346 313 262 238 220 206 204 218 236 242 240 238 241 243 244 239 226 220 219
95 86 63 85 97 100 110 129 124 139 163 170 268 280 297 297 281 288 277 272 280 276 263 262 273 282 289 301 311 316 318 322 326 334 343 345 346 343 342 344 344 345 345 347 349 349 350 349 348 347 347 346 345 349 354 357 358 360 0 2 8 10 13 12 6 6 8 7 13 21 20 17 16 19 22 24 22 15 3 344 303 251 214 194 188 198 218 231 235 237 240 244 251 250 238 233 224
68 110 122 98 94 98 107 114 115 128 153 276 288 281 285 292 286 286 287 294 285 263 264 269 273 281 286 295 305 308 309 316 321 329 340 343 345 343 340 342 342 343 344 345 346 347 350 350 349 348 348 347 347 350 353 356 358 360 1 2 7 11 14 16 11 8 9 9 13 22 25 23 24 26 29 30 31 28 20 12 359 305 210 176 169 178 195 211 222 232 239 249 258 252 252 249 225
67 119 124 110 98 102 111 117 115 119 335 319 290 288 279 292 300 283 281 289 272 267 266 270 276 281 287 294 300 299 304 313 317 324 336 341 344 343 338 338 338 341 342 342 343 345 349 351 350 348 348 349 349 351 352 355 358 359 2 3 5 10 14 17 16 12 11 10 12 18 24 27 27 29 33 36 39 41 36 32 31 39 83 118 123 131 155 190 208 218 232 252 261 252 260 262 222
123 112 105 100 98 94 98 128 90 345 292 319 292 279 268 273 316 268 269 286 271 271 268 270 279 286 294 298 295 295 301 311 314 320 330 337 343 342 337 335 335 339 340 339 341 342 347 351 351 349 348 350 352 352 352 353 357 359 1 4 5 9 13 16 19 18 15 14 14 15 20 27 31 29 34 44 46 46 47 44 41 50 72 90 100 105 110 136 173 205 236 260 262 256 268 269 245
121 110 93 72 85 75 55 124 356 340 264 317 304 282 284 214 219 246 252 277 280 275 270 270 277 288 296 297 296 296 300 308 311 317 326 332 340 343 338 334 334 339 339 335 337 340 345 350 352 351 348 350 353 353 353 353 355 359 0 3 5 8 13 15 19 21 21 20 18 18 18 23 33 35 39 49 46 42 50 54 49 48 64 84 99 103 99 111 142 186 246 263 252 255 278 271 257
115 104 89 12 35 48 23 28 348 333 270 321 323 312 313 235 225 240 239 249 271 276 272 271 273 284 292 292 297 297 301 305 308 315 321 327 335 341 341 335 333 338 339 333 334 339 342 347 352 353 351 352 355 354 354 354 353 358 359 0 4 7 11 15 19 21 24 24 24 24 22 22 31 40 46 55 56 50 49 51 55 55 60 81 94 102 103 104 111 103 261 263 247 254 278 272 261
99 68 90 15 10 14 358 9 349 317 270 325 348 329 296 256 242 238 236 239 258 271 274 274 269 278 287 288 293 296 299 300 306 314 317 322 331 337 341 338 334 337 341 336 332 335 338 344 350 353 354 354 356 356 356 355 353 356 358 359 2 5 9 13 18 21 23 25 27 29 29 27 29 37 49 60 65 61 52 48 51 52 58 77 72 59 79 85 76 69 58 271 247 255 260 252 248
93 46 64 41 57 336 327 9 14 38 295 326 69 264 262 264 270 243 235 236 248 264 268 271 266 272 282 284 288 293 297 298 305 314 314 320 326 334 342 341 337 337 340 340 333 333 335 341 347 351 356 357 357 359 358 356 355 355 356 357 359 3 8 11 15 19 22 23 25 29 33 33 32 34 40 55 65 65 61 58 56 52 54 66 64 57 63 64 61 65 58 40 40 32 255 232 233
50 84 329 345 96 302 305 8 39 38 277 305 88 237 267 269 265 225 232 240 243 258 265 266 265 268 275 280 285 292 300 301 305 312 314 318 325 333 342 343 341 338 339 341 339 334 334 339 345 349 354 357 359 1 1 359 357 355 354 356 358 1 6 10 12 15 19 22 23 25 30 36 39 39 37 39 52 62 65 68 73 69 61 64 68 70 73 71 69 73 71 51 47 61 69 126 235
359 86 141 324 68 9 305 235 20 3 286 296 68 239 280 275 222 193 236 264 250 253 262 263 264 266 270 276 283 293 303 309 310 312 314 317 325 334 341 343 343 340 338 340 343 340 336 338 342 347 352 356 360 2 3 2 0 357 354 354 357 0 4 8 11 12 14 20 23 24 26 32 38 43 43 40 42 52 61 67 74 77 71 64 67 75 81 81 78 76 81 78 72 76 81 248 257
321 23 105 263 229 257 305 255 340 357 342 306 1 228 254 268 258 256 279 292 263 252 259 264 265 265 268 275 282 294 302 311 317 317 318 321 328 335 340 342 342 341 338 338 342 343 341 341 341 345 350 354 359 1 3 3 3 2 358 355 355 360 5 8 10 10 11 15 21 25 26 28 32 37 43 45 46 48 53 59 65 71 74 71 69 76 80 80 82 81 82 91 97 103 121 201 255
216 14 88 331 325 243 264 260 338 8 6 319 336 258 264 276 283 285 294 295 263 255 260 264 267 267 269 273 280 290 298 311 324 324 323 325 332 337 340 341 341 341 338 337 340 342 344 345 344 344 347 351 356 359 3 3 3 3 3 0 358 360 5 8 8 8 10 12 15 21 25 28 30 32 36 42 47 50 53 56 58 61 64 71 78 83 81 76 76 78 79 83 84 83 87 90 261
157 147 127 142 316 267 253 257 312 13 345 293 258 248 279 287 287 294 304 297 258 257 260 262 266 268 271 273 279 283 291 312 330 327 324 328 333 337 340 340 341 342 338 338 340 341 344 346 347 346 346 348 352 355 359 2 2 4 6 5 3 3 5 5 4 6 10 11 12 15 20 25 28 30 32 34 40 46 50 53 57 58 58 60 66 74 81 80 75 73 72 66 56 48 45 43 25
120 111 110 161 253 282 277 270 317 6 340 276 250 269 284 283 279 289 306 298 259 254 255 261 267 272 275 277 280 280 287 311 329 326 323 329 333 335 336 336 340 343 341 339 340 341 341 343 346 347 347 347 349 352 355 358 1 3 6 7 7 5 4 2 0 2 7 10 10 11 16 22 25 28 31 31 34 38 44 49 52 57 59 59 61 64 69 73 74 73 69 61 48 39 33 25 20
83 111 141 183 237 263 275 262 326 6 10 265 340 333 290 281 280 291 308 293 256 254 257 266 276 280 279 280 283 284 290 307 320 323 324 328 331 332 332 334 336 340 343 340 339 340 338 339 342 345 346 345 346 351 354 355 357 0 3 5 6 5 1 359 358 359 2 4 5 9 14 17 21 24 27 29 32 34 37 41 44 49 54 57 59 60 62 64 66 69 68 65 57 47 39 33 28
72 93 135 336 278 278 297 303 339 1 7 272 347 342 290 283 283 289 305 281 261 269 267 273 284 287 289 290 291 290 294 305 313 317 324 327 329 330 330 334 335 337 341 339 337 336 335 335 336 339 341 340 343 347 351 353 353 356 359 2 4 3 1 358 356 356 356 356 359 5 11 15 18 19 21 23 26 30 32 33 36 40 46 50 53 54 57 58 60 63 64 65 69 67 56 46 40
54 52 78 312 317 351 311 316 336 333 271 290 326 320 285 297 304 292 306 294 285 288 277 280 287 293 302 305 300 297 299 306 310 314 323 327 327 328 332 337 337 338 337 332 331 331 330 330 330 334 335 335 338 342 347 349 350 352 354 358 1 1 2 360 357 353 349 352 357 1 6 11 15 16 16 17 18 22 25 28 30 34 38 41 43 45 48 50 52 53 53 54 60 71 70 59 50
358 72 103 310 309 320 260 296 331 325 34 348 335 337 301 319 332 292 307 330 309 299 290 289 293 303 311 317 316 310 306 306 307 313 323 328 329 331 335 339 338 339 335 328 325 324 325 326 325 327 330 330 333 337 341 344 346 347 348 350 353 356 360 2 4 360 354 357 359 0 4 7 10 10 10 11 13 15 18 21 24 28 32 34 34 34 35 40 45 44 45 46 45 50 62 67 62
343 234 142 166 253 264 288 323 345 9 42 358 18 22 305 308 305 266 300 342 311 304 303 292 299 317 320 325 329 324 315 309 307 313 321 327 333 335 337 340 337 336 335 327 322 319 322 325 322 322 324 324 327 332 336 339 340 342 343 345 346 350 355 359 3 6 7 9 6 3 2 2 3 3 3 4 6 9 11 14 17 19 23 27 29 28 27 28 32 30 29 38 41 39 42 47 42
18 229 146 129 133 161 336 350 12 48 348 313 38 69 277 311 304 264 314 337 303 307 305 286 286 311 321 328 333 332 326 319 313 315 323 330 335 336 334 336 336 334 333 330 327 320 319 323 323 322 320 319 323 328 332 335 336 337 339 341 343 345 348 352 355 358 2 6 7 7 3 0 359 356 356 357 359 0 2 5 7 9 12 14 16 19 21 21 21 18 12 13 17 9 354 352 328
12 178 126 115 108 122 17 32 47 329 279 313 25 79 203 297 283 274 328 327 306 310 298 283 263 274 314 329 340 346 343 336 331 329 334 336 336 335 332 331 332 332 332 333 334 327 322 323 324 324 322 318 320 325 330 331 332 333 334 335 338 339 340 344 347 348 351 356 360 3 3 2 358 353 350 349 350 352 353 355 355 357 359 2 3 4 6 8 8 8 6 4 1 350 327 297 262
272 174 134 135 132 141 139 96 71 311 352 327 341 23 72 273 277 312 355 335 307 294 277 271 241 244 303 327 341 352 349 344 338 334 335 335 333 331 329 327 328 328 329 332 334 331 328 327 327 329 325 319 319 322 326 328 328 329 330 330 333 334 333 336 340 340 341 345 350 353 356 358 357 354 349 344 342 342 344 345 346 348 348 349 350 349 350 351 351 351 350 348 348 346 340 326 290
216 147 107 63 79 88 103 99 117 26 38 286 307 356 29 281 285 317 7 313 276 270 267 264 238 241 289 318 338 347 345 342 337 333 333 331 329 327 326 325 325 322 322 325 329 330 330 330 331 333 328 318 316 318 321 324 324 325 326 326 329 330 329 329 332 334 333 334 339 343 346 348 349 351 350 344 340 336 335 336 336 339 339 338 337 335 335 333 332 332 332 332 330 330 330 327 316
135 119 71 65 52 39 60 44 94 64 1 253 267 331 37 305 286 256 219 218 224 239 282 275 247 241 273 314 336 340 337 336 335 333 331 330 329 327 325 324 324 320 315 315 319 322 326 328 330 334 333 319 311 313 316 318 319 321 321 322 325 326 324 324 326 328 327 325 328 333 336 339 340 342 344 344 343 338 334 329 328 328 327 328 327 326 326 323 322 320 317 317 316 315 316 315 313
115 105 78 102 345 5 35 351 36 71 303 253 243 291 108 244 266 245 240 240 217 202 225 255 252 248 267 304 319 323 325 326 328 328 328 332 336 335 330 327 327 324 318 314 312 314 318 322 325 330 334 322 310 311 312 313 315 315 316 318 320 320 320 321 321 323 322 319 321 323 327 330 332 333 335 337 339 340 338 331 326 321 316 315 314 315 317 317 316 315 312 310 308 307 305 304 302
79 66 51 67 360 8 20 338 9 155 260 229 206 278 182 229 243 241 251 253 233 221 224 236 254 258 266 286 299 309 317 321 323 321 319 327 336 340 339 336 334 331 326 320 315 312 312 314 316 322 329 324 314 311 310 310 311 309 310 313 314 315 315 316 317 319 318 314 314 316 318 321 323 324 327 328 330 332 335 334 330 325 317 312 308 306 306 306 306 306 306 306 304 303 301 298 295
40 62 56 75 69 38 351 297 319 289 277 246 229 277 289 273 259 226 227 238 242 244 241 239 245 252 260 274 287 300 313 322 324 317 312 316 325 332 335 336 337 336 332 326 320 314 310 310 310 312 320 322 318 315 310 308 307 305 306 307 308 308 309 310 312 314 314 311 309 309 312 315 315 316 317 317 319 321 324 325 325 325 322 318 315 310 305 301 298 295 295 295 296 296 296 295 293
2 190 118 101 124 118 243 257 242 282 293 301 298 274 206 248 277 219 224 251 267 263 250 240 239 242 252 267 279 292 305 317 322 318 310 307 312 318 323 327 330 334 336 333 327 319 310 308 307 307 312 316 317 316 313 309 306 303 302 303 304 304 304 305 307 308 308 306 305 306 309 310 307 308 308 306 305 307 310 313 315 317 316 315 314 312 309 305 300 295 290 287 287 288 287 287 287
275 184 83 71 146 137 120 188 184 207 313 303 283 236 218 228 271 276 275 285 282 270 256 246 243 243 248 260 273 288 297 302 314 320 315 304 301 305 312 317 319 324 330 333 332 327 318 312 307 305 306 310 313 315 314 313 310 307 304 302 301 301 301 302 302 303 303 301 301 303 305 304 301 300 298 296 295 296 298 300 302 305 306 306 307 307 306 305 302 299 295 290 286 284 282 281 281
355 53 68 121 139 116 106 148 211 75 37 287 291 281 292 314 308 320 339 313 295 284 267 255 250 251 255 259 270 286 292 292 301 315 318 308 298 297 302 307 309 313 317 323 328 327 325 321 313 306 303 305 308 309 311 313 313 312 311 307 304 301 299 299 299 300 299 298 299 300 299 298 297 295 292 291 290 291 293 295 297 299 300 299 300 301 300 300 299 297 295 294 291 285 281 280 279
52 83 146 161 94 88 101 89 356 38 35 285 331 298 297 341 331 329 350 322 298 288 271 267 262 259 259 261 270 288 295 292 294 305 314 308 299 296 296 297 299 303 307 312 318 321 323 324 319 310 304 303 303 303 306 308 309 312 313 311 311 307 303 299 296 295 295 295 296 296 295 295 294 292 290 290 290 290 292 294 296 298 296 295 296 296 296 295 294 294 293 292 290 286 283 282 280
90 124 136 117 100 55 34 60 18 16 332 294 313 300 269 209 227 291 307 254 267 277 282 280 264 259 260 261 270 290 300 299 295 298 304 303 300 296 293 293 293 296 301 304 309 312 316 320 320 315 307 302 300 301 302 303 304 306 307 308 310 310 308 303 297 294 292 291 292 292 291 291 290 289 289 290 291 292 294 294 295 295 293 293 293 292 292 292 291 291 290 290 289 286 284 283 282
62 76 35 30 120 141 31 63 131 212 298 292 320 328 277 228 217 208 217 225 232 251 269 263 253 258 261 257 265 288 301 307 304 298 295 297 298 295 292 292 292 294 297 299 301 304 308 311 315 316 311 304 300 299 299 299 299 300 300 303 306 306 306 304 301 296 292 290 290 288 288 287 287 287 288 290 292 294 296 295 295 295 294 294 294 293 291 290 289 289 288 288 287 285 283 283 282
37 31 3 10 70 109 177 42 77 123 142 181 329 317 278 250 204 190 215 225 214 219 231 249 258 263 260 255 264 282 294 306 307 298 292 293 293 291 292 292 293 295 296 298 298 299 301 303 306 311 311 307 302 298 295 294 294 294 296 298 299 299 300 300 298 295 292 290 289 287 287 286 286 288 289 290 292 294 294 295 294 295 296 296 296 296 294 291 290 289 288 288 286 284 283 282 280
142 151 215 156 105 109 111 337 329 92 120 164 148 286 277 264 202 201 220 224 227 231 234 254 266 266 260 260 270 282 290 301 305 297 291 292 291 291 292 291 293 296 298 299 298 297 298 300 301 305 307 308 305 298 293 291 289 288 289 290 289 290 292 292 292 291 290 289 287 287 286 286 288 290 289 290 291 291 290 290 291 293 295 296 296 296 294 292 291 290 290 289 287 285 284 283 280